Hourly Weather Barsukovskiy

Today, 21 April, Wednesday

Time Temperature Precipitation Wind Pressure Humidity
00:00 +13°C° 0 mm 2 mps 727 mmHg 64%
01:00 +13°C° 0.1 mm 2 mps 728 mmHg 67%
02:00 +12°C° 0.1 mm 2 mps 728 mmHg 70%
03:00 +10°C° 0.1 mm 2 mps 728 mmHg 73%
04:00 +11°C° 0.7 mm 1 mps 729 mmHg 78%
05:00 +10°C° 0.7 mm 1 mps 730 mmHg 83%
06:00 +10°C° 0.7 mm 1 mps 730 mmHg 89%
07:00 +10°C° 0.4 mm 1 mps 731 mmHg 89%
08:00 +9°C° 0.4 mm 2 mps 731 mmHg 89%
09:00 +10°C° 0.4 mm 2 mps 731 mmHg 89%
10:00 +10°C° 0.6 mm 2 mps 731 mmHg 89%
11:00 +10°C° 0.6 mm 2 mps 732 mmHg 89%
12:00 +10°C° 0.6 mm 2 mps 732 mmHg 89%
13:00 +10°C° 0.1 mm 2 mps 732 mmHg 89%
14:00 +11°C° 0.1 mm 1 mps 732 mmHg 90%
15:00 +11°C° 0.1 mm 1 mps 732 mmHg 90%
16:00 +11°C° 0.2 mm 1 mps 732 mmHg 91%
17:00 +11°C° 0.2 mm 1 mps 733 mmHg 93%
18:00 +10°C° 0.2 mm 0 mps 733 mmHg 94%
19:00 +11°C° 0.3 mm 1 mps 733 mmHg 94%
20:00 +11°C° 0.3 mm 1 mps 733 mmHg 94%
21:00 +11°C° 0.3 mm 1 mps 734 mmHg 94%
22:00 +11°C° 0 mm 1 mps 733 mmHg 93%
23:00 +11°C° 0 mm 1 mps 733 mmHg 93%

Tomorrow, 22 April, Thursday

Time Temperature Precipitation Wind Pressure Humidity
00:00 +11°C° 0 mm 1 mps 733 mmHg 92%
01:00 +11°C° 0 mm 1 mps 733 mmHg 92%
02:00 +11°C° 0 mm 1 mps 733 mmHg 91%
03:00 +11°C° 0 mm 1 mps 733 mmHg 91%
04:00 +11°C° 0.1 mm 1 mps 733 mmHg 92%
05:00 +11°C° 0.1 mm 1 mps 733 mmHg 93%
06:00 +11°C° 0.1 mm 1 mps 733 mmHg 93%
07:00 +10°C° 0 mm 2 mps 733 mmHg 91%
08:00 +11°C° 0 mm 3 mps 734 mmHg 88%
09:00 +11°C° 0 mm 4 mps 734 mmHg 85%
10:00 +12°C° 0 mm 4 mps 734 mmHg 82%
11:00 +12°C° 0 mm 4 mps 734 mmHg 79%
12:00 +13°C° 0 mm 5 mps 734 mmHg 75%
13:00 +13°C° 0 mm 5 mps 734 mmHg 75%
14:00 +13°C° 0 mm 5 mps 734 mmHg 74%
15:00 +14°C° 0 mm 5 mps 734 mmHg 73%
16:00 +13°C° 0.2 mm 4 mps 733 mmHg 77%
17:00 +12°C° 0.2 mm 4 mps 733 mmHg 81%
18:00 +12°C° 0.2 mm 3 mps 733 mmHg 85%
19:00 +11°C° 0.5 mm 3 mps 734 mmHg 88%
20:00 +12°C° 0.5 mm 2 mps 734 mmHg 91%
21:00 +11°C° 0.5 mm 1 mps 734 mmHg 94%
22:00 +11°C° 1.3 mm 1 mps 734 mmHg 95%
23:00 +11°C° 1.3 mm 1 mps 734 mmHg 95%

Day after tomorrow, 23 April, Friday

Time Temperature Precipitation Wind Pressure Humidity
00:00 +10°C° 1.3 mm 0 mps 734 mmHg 96%
01:00 +11°C° 0.2 mm 1 mps 734 mmHg 95%
02:00 +11°C° 0.2 mm 1 mps 734 mmHg 94%
03:00 +11°C° 0.2 mm 1 mps 734 mmHg 93%
04:00 +11°C° 0.1 mm 1 mps 734 mmHg 93%
05:00 +11°C° 0.1 mm 1 mps 734 mmHg 93%
06:00 +9°C° 0.1 mm 2 mps 735 mmHg 92%
07:00 +10°C° 0.1 mm 2 mps 735 mmHg 88%
08:00 +11°C° 0.1 mm 3 mps 735 mmHg 84%
09:00 +12°C° 0.1 mm 3 mps 735 mmHg 80%
10:00 +13°C° 0.1 mm 3 mps 735 mmHg 72%
11:00 +16°C° 0.1 mm 3 mps 734 mmHg 65%
12:00 +17°C° 0.1 mm 3 mps 734 mmHg 58%
13:00 +17°C° 0 mm 3 mps 734 mmHg 55%
14:00 +18°C° 0 mm 3 mps 734 mmHg 51%
15:00 +18°C° 0 mm 3 mps 734 mmHg 48%
16:00 +17°C° 0 mm 3 mps 734 mmHg 53%
17:00 +17°C° 0 mm 2 mps 733 mmHg 58%
18:00 +16°C° 0 mm 1 mps 733 mmHg 63%
19:00 +15°C° 0 mm 2 mps 733 mmHg 66%
20:00 +13°C° 0 mm 2 mps 733 mmHg 69%
21:00 +12°C° 0 mm 2 mps 733 mmHg 72%
22:00 +10°C° 0 mm 2 mps 732 mmHg 74%
23:00 +11°C° 0 mm 1 mps 732 mmHg 76%

24 April, Saturday

Time Temperature Precipitation Wind Pressure Humidity
00:00 +11°C° 0 mm 1 mps 732 mmHg 78%
01:00 +11°C° 0 mm 1 mps 731 mmHg 78%
02:00 +11°C° 0 mm 1 mps 731 mmHg 79%
03:00 +11°C° 0 mm 1 mps 731 mmHg 79%
04:00 +11°C° 0 mm 1 mps 731 mmHg 80%
05:00 +11°C° 0 mm 1 mps 732 mmHg 81%
06:00 +11°C° 0 mm 1 mps 732 mmHg 82%
07:00 +13°C° 0 mm 1 mps 732 mmHg 77%
08:00 +14°C° 0 mm 2 mps 732 mmHg 72%
09:00 +15°C° 0 mm 2 mps 732 mmHg 67%
10:00 +16°C° 0 mm 3 mps 732 mmHg 61%
11:00 +17°C° 0 mm 3 mps 732 mmHg 55%
12:00 +18°C° 0 mm 3 mps 732 mmHg 49%
13:00 +19°C° 0 mm 3 mps 732 mmHg 49%
14:00 +19°C° 0 mm 4 mps 732 mmHg 48%
15:00 +19°C° 0 mm 4 mps 732 mmHg 48%
16:00 +18°C° 0 mm 3 mps 732 mmHg 54%
17:00 +17°C° 0 mm 3 mps 732 mmHg 61%
18:00 +16°C° 0 mm 3 mps 732 mmHg 67%
19:00 +15°C° 0 mm 2 mps 732 mmHg 68%
20:00 +15°C° 0 mm 2 mps 732 mmHg 69%
21:00 +14°C° 0 mm 1 mps 733 mmHg 70%
22:00 +14°C° 0 mm 1 mps 733 mmHg 70%
23:00 +13°C° 0 mm 1 mps 733 mmHg 71%

25 April, Sunday

Time Temperature Precipitation Wind Pressure Humidity
00:00 +13°C° 0 mm 1 mps 733 mmHg 71%
01:00 +13°C° 0 mm 1 mps 732 mmHg 74%
02:00 +12°C° 0 mm 1 mps 732 mmHg 77%
03:00 +12°C° 0 mm 1 mps 732 mmHg 80%
04:00 +12°C° 0.1 mm 1 mps 732 mmHg 82%
05:00 +12°C° 0.1 mm 1 mps 732 mmHg 84%
06:00 +11°C° 0.1 mm 1 mps 732 mmHg 86%
07:00 +12°C° 0.3 mm 1 mps 732 mmHg 87%
08:00 +12°C° 0.3 mm 2 mps 732 mmHg 88%
09:00 +12°C° 0.3 mm 2 mps 731 mmHg 88%
10:00 +12°C° 0.8 mm 2 mps 731 mmHg 90%
11:00 +12°C° 0.8 mm 2 mps 730 mmHg 92%
12:00 +11°C° 0.8 mm 3 mps 730 mmHg 94%
13:00 +12°C° 2.6 mm 2 mps 730 mmHg 95%
14:00 +12°C° 2.6 mm 2 mps 730 mmHg 96%
15:00 +12°C° 2.6 mm 2 mps 730 mmHg 96%
16:00 +10°C° 1.2 mm 2 mps 730 mmHg 97%
17:00 +10°C° 1.2 mm 3 mps 730 mmHg 97%
18:00 +10°C° 1.2 mm 3 mps 730 mmHg 97%
19:00 +10°C° 0.8 mm 3 mps 730 mmHg 97%
20:00 +9°C° 0.8 mm 2 mps 730 mmHg 97%
21:00 +9°C° 0.8 mm 2 mps 730 mmHg 97%
22:00 +9°C° 0.1 mm 3 mps 730 mmHg 97%
23:00 +9°C° 0.1 mm 3 mps 729 mmHg 97%

26 April, Monday

Time Temperature Precipitation Wind Pressure Humidity
00:00 +8°C° 0.1 mm 3 mps 729 mmHg 97%
01:00 +8°C° 1 mm 3 mps 729 mmHg 97%
02:00 +8°C° 1 mm 3 mps 729 mmHg 97%
03:00 +8°C° 1 mm 3 mps 729 mmHg 97%
04:00 +8°C° 1.3 mm 2 mps 729 mmHg 97%
05:00 +8°C° 1.3 mm 2 mps 729 mmHg 97%
06:00 +8°C° 1.3 mm 2 mps 729 mmHg 96%
07:00 +8°C° 0.4 mm 2 mps 729 mmHg 95%
08:00 +8°C° 0.4 mm 2 mps 729 mmHg 94%
09:00 +8°C° 0.4 mm 2 mps 729 mmHg 93%
10:00 +9°C° 0.1 mm 1 mps 729 mmHg 92%
11:00 +9°C° 0.1 mm 1 mps 730 mmHg 90%
12:00 +10°C° 0.1 mm 1 mps 730 mmHg 89%
13:00 +10°C° 0 mm 1 mps 730 mmHg 90%
14:00 +9°C° 0 mm 1 mps 730 mmHg 90%
15:00 +9°C° 0 mm 1 mps 730 mmHg 91%
16:00 +9°C° 0.2 mm 1 mps 730 mmHg 92%
17:00 +9°C° 0.2 mm 1 mps 730 mmHg 94%
18:00 +9°C° 0.2 mm 1 mps 730 mmHg 95%
19:00 +9°C° 0.3 mm 1 mps 730 mmHg 95%
20:00 +9°C° 0.3 mm 1 mps 730 mmHg 95%
21:00 +9°C° 0.3 mm 1 mps 730 mmHg 95%
22:00 +9°C° 0.2 mm 1 mps 730 mmHg 93%
23:00 +7°C° 0.2 mm 2 mps 730 mmHg 92%
Show more